{"data":{"norad_id":67726,"epoch":"2026-05-25T02:23:12.797088Z","epoch_age_seconds":63106,"freshness":"FRESH","line1":"1 67726U 26026F   26145.09945367  .00017377  00000+0  53924-3 0  9995","line2":"2 67726  97.2825 198.5863 0000696 156.3615 203.7660 15.33450458 15830","mean_motion":15.33450458,"eccentricity":6.96e-5,"inclination_deg":97.2825,"raan_deg":198.5863,"arg_perigee_deg":156.3615,"mean_anomaly_deg":203.766,"bstar":0.00053924,"rev_number":1583,"period_min":93.905870417106,"perigee_km":465.05061634843,"apogee_km":466.00325436823,"semimajor_km":6843.6639353583,"source":"CELESTRAK","updated_at":"2026-05-25T13:38:21.685879Z"}}